Regional Weather Roundup
Issued by NWS Sterling, VA

Home | Current Version | Previous Version | Graphics & Text | Print | Product List | Glossary On
Versions: 1 2 3 4 5 6 7 8 9 10 11 12 13 14 15 16 17 18 19 20 21 22 23 24 25 26 27 28 29 30 31 32 33 34 35 36 37 38 39 40 41 42 43 44 45 46 47 48
000
ASUS41 KLWX 260410
RWRLWX

REGIONAL WEATHER ROUNDUP
NATIONAL WEATHER SERVICE BALTIMORE MD/WASHINGTON DC
1100 PM EST SUN JAN 25 2015

Note: "FAIR" indicates few or no clouds below 12,000 feet
with no significant weather and/or obstructions to visibility.
 TC=TEMPERATURE CELSIUS

 * =Non NWS site. Station does not report precipitation (e.g. rain,
    snow, etc.), thunder, or fog.

DCZ001-MDZ009-015-VAZ040>042-051-053>054-260500-
WASHINGTON METRO

CITY           SKY/WX    TMP DP  RH WIND       PRES   REMARKS
WASHINGTON NAT CLOUDY    46  32  58 S6        29.86S
DULLES         CLOUDY    43  31  62 SE3       29.83S
ANDREWS AFB    CLOUDY    42  32  67 SE6       29.85R
FT BELVOIR     CLOUDY    41  33  73 VRB1      29.85S
QUANTICO       CLOUDY    42  33  70 CALM      29.86S
COLLEGE PARK*  CLOUDY    43  32  65 CALM      29.85S
LEESBURG*      CLOUDY    41  37  87 CALM      29.84F
MANASSAS*      CLOUDY    41  36  81 CALM      29.84S
GAITHERSBURG*  CLOUDY    39  30  70 E3        29.87S

$$

MDZ006>007-011-014-260500-
BALTIMORE METRO

CITY           SKY/WX    TMP DP  RH WIND       PRES   REMARKS
BWI AIRPORT    CLOUDY    41  32  70 E9        29.86F
MD SCIENCE CTR   N/A     42  33  70 MISG      29.87F
MARTIN STATE   CLOUDY    41  34  75 NE6       29.90F
ANNAPOLIS      CLOUDY    41  32  70 E6        29.87F
FORT MEADE*    CLOUDY    39  32  75 E3        29.88F

$$

MDZ012-015-019>023-260500-
MARYLAND EASTERN SHORE

CITY           SKY/WX    TMP DP  RH WIND       PRES   REMARKS
OCEAN CITY     CLOUDY    39  36  89 CALM      29.92S
SALISBURY      CLOUDY    42  34  73 SE6       29.90S
BAY BRIDGE AP*   N/A     43  30  61 SE7       29.88F
CAMBRIDGE*     CLOUDY    43  32  65 SE8       29.88F
EASTON*        CLOUDY    43  33  68 SE6       29.91F

$$

MDZ017>025-260500-
SOUTHERN MARYLAND

CITY           SKY/WX    TMP DP  RH WIND       PRES   REMARKS
PATUXENT RIVER CLOUDY    41  34  76 SE8       29.86F
ST INIGOES     CLOUDY    43  33  68 SE7       29.87S
LEONARDTOWN*   CLOUDY    41  32  70 SE5       29.88S

$$

MDZ003>005-260500-
NORTH CENTRAL MARYLAND

CITY           SKY/WX    TMP DP  RH WIND       PRES   REMARKS
FREDERICK*     CLOUDY    37  34  87 N8        29.88S FOG
HAGERSTOWN APT CLOUDY    36  33  89 NE8       29.83S
WESTMINSTER*   DRIZZLE   36  34  93 E7        29.84F

$$

MDZ501>502-260500-
WESTERN MARYLAND

CITY           SKY/WX    TMP DP  RH WIND       PRES   REMARKS
OAKLAND*       FOG       32 N/A N/A SE6       29.71S VSB 1/4
CUMBERLAND*    CLOUDY    37  36  93 N3        29.85S

$$

VAZ025>031-260500-
SHENANDOAH VALLEY

CITY           SKY/WX    TMP DP  RH WIND       PRES   REMARKS
WINCHESTER*    CLOUDY    37  32  81 CALM      29.81F
FRONT ROYAL*   FAIR      36  32  87 CALM      29.79F
LURAY*         MOCLDY    34  34 100 CALM      29.79F
NEW MARKET*    CLOUDY    32  31  96 CALM      29.78F
STAUNTON*      CLOUDY    35  31  87 CALM      29.79S
WAYNESBORO*    CLOUDY    41  32  70 S7        29.76S

$$

WVZ021-048>050-054>055-260500-
EASTERN WEST VIRGINIA PANHANDLE

CITY           SKY/WX    TMP DP  RH WIND       PRES   REMARKS
MARTINSBURG    CLOUDY    38  34  85 N6        29.83S FOG
PETERSBURG*    MIX PCPN  35  35 100 CALM      29.80S

$$

VAZ036>039-050-260500-
CENTRAL FOOTHILLS

CITY           SKY/WX    TMP DP  RH WIND       PRES   REMARKS
CHARLOTTESVILL MOCLDY    37  31  78 N3        29.80S
CULPEPER*      CLOUDY    37  36  93 CALM      29.82F
ORANGE*        CLOUDY    36  34  93 CALM      29.83F
GORDONSVILLE*  FAIR      33  31  95 CALM      29.81S
WARRENTON*     CLOUDY    40  38  93 NE5       29.82S

$$

VAZ055>057-260500-
NORTH AND CENTRAL PIEDMONT

CITY           SKY/WX    TMP DP  RH WIND       PRES   REMARKS
FREDERICKSBRG* CLOUDY    36  34  91 SE6       29.83F
STAFFORD*      CLOUDY    37  37 100 CALM      29.87F

$$

NCZ024-NYZ072-PAZ021-071-VAZ022-071-260500-
OTHER REGIONAL OBSERVATIONS

CITY           SKY/WX    TMP DP  RH WIND       PRES   REMARKS
NEW YORK CITY  CLOUDY    32   9  38 N13       30.00R WCI  22
PHILADELPHIA   FLURRIES  35  28  75 E10       29.96R WCI  27
PITTSBURGH     SNOW      30  29  96 NE7       29.77F VSB 1/2
ROANOKE        MOCLDY    44  30  57 SE6       29.76F
RICHMOND       CLOUDY    42  36  79 SE8       29.84F
RALEIGH        MOCLDY    44  32  62 S7        29.83S

$$

ANZ530>537-260500-
MARINE OBSERVATIONS

STATION/POSITION TIME  TEMP    WIND        PRES
                       AIR SEA DIR/SP/G
                 (UTC) (F)     (DEG/KT/KT) (MB)
THOMAS PT LIGHT  0400   41 37  130/  7/  8 1012.6F
BALT KEY BRIDGE  0400   41      50/ 10/ 11 1011.6F
COVE POINT       0400   39     170/ 10/ 11 1011.3S
LEWISETTA        0400   42 39  180/  6/  7 1011.2R
SOLOMONS ISLAND  0400      39                N/A
PINEY POINT      0400          150/  7/  8   N/A

$$




USA.gov is the U.S. government's official web portal to all federal, state and local government web resources and services.